Theta_e
323 324 324 326 326 325 325 325 325 324 324 325 325 326 326 326 326 325 323 319 318 322 323 323 323 323 323 324 324 324 323 322 322 322 323 323 323 323 323 324 325 326 326 327 327 327 326 326 326 326 325 324 323 323 323 323 324 325 325 324 323 321 319 320 320 320 318 316 315 319 323 324 323 323 322 323 323 324 321 317 315 314 312 312 311 309
323 325 325 324 324 324 323 323 324 323 324 324 325 326 326 326 326 324 322 319 317 322 324 322 322 323 323 322 324 324 323 322 322 322 323 323 323 323 323 324 324 325 326 327 326 326 326 326 326 326 326 325 324 324 324 324 325 325 325 324 322 321 319 319 320 319 318 316 314 316 320 324 325 324 324 324 324 324 323 319 315 313 312 312 311 309
322 325 324 322 322 323 322 322 323 323 324 324 324 325 326 325 325 323 322 319 318 321 324 322 322 323 322 322 324 324 322 322 322 322 323 323 323 324 323 324 324 325 325 326 326 326 326 326 326 326 326 326 326 325 325 325 325 325 325 324 322 320 319 318 319 319 319 318 316 315 316 320 323 324 325 324 324 324 324 322 319 315 312 311 311 310
320 322 322 319 321 323 322 322 323 323 323 324 324 325 325 324 324 325 323 320 318 319 321 320 321 323 322 322 323 324 323 322 322 322 322 323 323 324 324 324 324 324 325 325 325 326 326 326 326 326 326 326 326 325 326 325 325 325 325 325 323 320 319 319 318 319 319 319 319 318 316 316 318 322 324 324 324 324 325 325 323 319 315 312 311 311
319 321 320 318 320 323 324 323 323 324 324 325 324 324 324 324 324 324 322 320 319 318 317 319 323 323 323 323 323 324 324 322 322 323 323 322 323 323 323 323 324 325 325 325 325 325 325 326 325 326 326 325 325 325 326 326 325 325 325 325 323 320 319 319 318 318 318 319 320 321 320 318 316 317 320 323 325 326 325 325 325 323 319 315 312 312
320 320 320 320 321 323 325 325 324 324 325 325 325 324 324 323 323 323 323 322 323 323 318 320 325 325 323 324 324 324 324 322 322 322 322 322 322 323 323 324 325 325 325 324 325 324 324 324 324 325 326 325 325 324 325 326 326 326 325 325 324 321 319 318 318 318 318 318 319 321 321 318 316 315 316 319 323 326 327 327 326 326 324 320 316 315
321 320 321 323 323 323 324 326 325 324 325 326 325 324 323 323 323 323 324 324 325 325 320 318 324 325 323 324 324 324 323 322 322 322 323 323 322 323 324 324 325 324 324 324 324 324 323 324 323 323 324 324 323 323 324 325 325 326 325 325 325 323 321 319 318 318 318 317 318 320 319 318 316 315 314 314 317 321 324 327 328 327 326 325 322 320
320 320 322 324 324 324 324 325 325 324 326 328 325 323 323 323 324 324 325 325 324 325 322 319 322 325 325 324 323 323 323 322 322 322 323 323 323 323 324 324 324 324 324 324 324 323 323 323 323 323 323 323 323 322 322 323 324 325 325 325 325 325 323 321 319 318 317 317 318 318 319 318 317 316 315 314 314 315 317 321 324 327 327 327 326 324
319 320 322 322 323 324 323 323 323 323 326 326 323 323 323 323 324 325 325 326 325 325 325 323 323 325 326 324 322 321 322 322 322 322 322 324 324 324 324 324 324 324 324 323 323 323 323 323 322 322 322 321 322 322 322 322 322 322 323 324 325 325 325 324 321 319 318 317 318 318 318 318 318 317 316 316 315 314 314 315 317 321 324 326 327 327
317 319 319 320 322 322 321 320 321 325 325 322 320 320 323 324 324 325 326 327 325 325 326 325 323 325 326 323 322 322 322 322 322 321 322 323 324 323 324 324 323 323 323 323 322 322 322 322 322 321 321 321 321 321 321 321 321 322 322 322 324 324 325 325 324 323 321 319 318 318 318 318 319 318 318 318 317 316 316 315 314 315 318 320 324 326
316 316 317 318 319 319 319 318 320 324 322 321 321 321 322 323 323 324 326 325 326 327 327 325 323 324 325 325 322 322 322 322 322 321 322 323 323 324 323 323 322 322 322 322 321 320 320 321 321 321 321 321 321 321 321 321 321 322 322 322 322 323 324 324 325 325 324 323 322 321 321 320 319 319 319 319 319 318 317 316 315 314 314 315 317 320
317 317 317 317 316 316 318 319 320 322 320 322 325 324 323 323 322 323 323 323 327 329 327 324 323 323 325 324 321 321 321 320 320 321 321 322 323 323 322 322 322 321 321 320 320 319 319 320 320 320 321 321 320 320 320 321 320 321 321 322 322 322 322 323 323 324 323 324 324 324 323 322 321 320 319 319 319 319 319 318 317 316 315 315 314 315
318 317 317 317 316 316 318 319 321 321 321 324 325 323 325 325 325 326 325 324 327 327 324 323 324 325 325 323 320 321 320 319 320 320 321 322 322 322 321 321 321 320 319 319 319 319 319 320 320 320 321 320 318 318 319 320 320 320 321 321 322 322 322 322 321 321 321 321 322 323 323 324 323 322 320 320 320 320 320 319 319 318 317 316 315 315
320 318 317 317 317 316 317 319 320 321 322 323 323 322 324 326 327 329 327 326 327 325 322 322 324 324 323 321 321 321 321 321 321 321 321 320 321 321 321 320 320 319 319 319 319 319 320 320 320 319 319 318 318 317 319 320 321 320 320 321 322 322 321 321 321 321 320 320 321 321 321 322 323 323 322 321 320 320 320 320 320 320 318 318 317 316
320 320 317 316 317 317 317 317 319 321 321 321 321 321 322 324 326 327 327 326 327 325 321 321 323 324 323 320 319 318 319 321 321 321 320 320 320 320 320 320 319 319 319 319 320 320 320 319 319 318 318 318 318 317 318 319 320 320 320 321 321 321 321 321 321 321 321 320 320 320 320 321 322 322 323 322 322 321 321 321 321 320 319 319 319 318
320 321 318 316 317 316 316 317 318 320 321 320 321 321 321 322 322 322 323 323 323 324 322 321 322 322 321 320 318 317 318 318 319 320 320 320 320 320 319 319 319 319 320 320 320 320 319 319 318 318 318 317 317 317 317 317 318 319 320 320 320 320 321 321 320 320 321 320 320 320 320 320 320 321 321 322 322 322 322 322 321 321 320 319 319 320
320 321 318 317 318 316 315 316 317 319 322 321 321 321 322 323 322 321 321 321 321 323 324 322 322 321 321 321 320 319 319 318 319 319 320 320 319 319 319 319 320 320 320 320 319 319 319 319 319 318 318 317 317 317 317 318 318 318 319 319 320 320 320 320 320 320 320 320 320 320 320 320 320 320 320 321 321 321 321 321 321 322 321 320 320 320
319 320 319 318 318 317 316 317 318 317 320 323 322 320 321 323 323 321 320 321 321 323 324 323 322 322 322 322 320 319 320 319 319 319 320 320 320 320 319 320 320 320 319 319 319 319 319 319 319 318 317 317 317 317 317 318 318 318 318 318 318 319 318 319 319 320 320 320 319 319 319 319 319 319 320 320 319 320 320 320 321 321 322 321 320 320
317 318 319 319 319 318 316 318 320 316 315 319 321 321 321 321 323 321 319 321 321 321 322 322 322 321 321 321 319 319 320 319 318 318 319 319 320 320 320 319 319 319 319 319 319 320 320 319 320 318 318 318 317 318 317 318 319 319 319 319 319 319 318 318 319 319 319 319 319 319 319 319 319 319 319 319 319 319 319 320 320 321 321 321 321 321
316 315 318 319 318 318 318 318 320 318 316 317 319 321 322 320 322 322 320 319 321 321 321 322 322 321 320 320 319 320 320 319 318 318 318 319 320 320 320 319 319 319 319 319 319 320 319 319 320 319 318 318 317 318 318 318 318 318 318 318 319 319 319 318 319 319 319 319 319 319 319 319 319 320 320 319 319 319 319 319 319 320 321 321 322 322
317 315 316 318 317 318 319 318 319 320 319 318 319 322 322 321 321 323 321 320 321 322 322 322 323 321 319 320 320 320 320 319 318 318 318 320 320 319 319 319 318 318 319 319 319 320 319 319 320 319 318 318 318 318 318 317 318 318 318 318 318 319 319 319 319 319 319 319 319 319 319 318 319 319 319 319 318 318 318 318 319 320 321 321 322 322
317 314 314 318 319 319 320 317 316 318 319 318 319 320 321 321 321 322 322 322 321 321 322 322 322 321 318 318 318 318 318 318 318 319 319 320 319 318 318 318 318 319 319 319 319 319 319 319 319 319 319 319 319 318 318 318 317 318 318 317 318 318 319 319 319 319 319 318 318 318 318 317 318 318 319 319 319 318 318 318 318 319 320 321 321 322
316 314 314 318 319 318 317 314 313 316 317 318 319 318 319 320 320 320 321 322 321 321 321 320 321 321 318 316 317 316 317 317 318 319 319 318 318 318 318 318 318 319 319 319 319 319 319 319 319 319 319 319 319 318 318 318 317 318 318 317 317 318 319 319 319 318 317 318 318 317 317 317 316 317 317 318 319 318 319 318 318 319 320 320 321 321
315 315 315 316 317 316 314 312 311 312 315 319 320 319 319 320 319 320 320 319 320 321 321 320 321 321 318 317 317 317 317 317 316 317 317 317 317 317 318 318 318 319 319 319 319 319 319 319 319 319 319 319 319 319 318 318 318 318 318 318 318 318 318 318 317 317 317 317 317 316 316 315 315 316 316 317 318 319 319 318 318 318 319 320 320 321
315 316 315 316 317 317 315 314 313 313 314 317 319 319 319 319 319 320 319 317 318 320 321 321 321 320 318 317 317 317 317 316 315 315 315 316 316 317 318 318 318 319 319 319 319 319 319 319 319 319 319 319 319 318 318 318 318 318 317 317 317 317 317 317 316 316 316 315 315 315 315 315 315 316 316 316 317 318 318 318 318 318 318 319 319 320
315 316 315 315 317 317 317 316 316 316 316 316 316 318 318 319 319 320 319 317 317 318 320 320 320 319 317 317 317 317 316 315 315 315 315 315 316 317 318 318 318 318 318 319 319 319 319 319 319 319 319 319 319 318 318 318 318 318 317 317 316 316 316 316 315 314 314 313 314 314 315 315 316 316 316 316 316 316 317 317 317 317 317 317 318 318
313 314 315 314 316 316 315 315 315 315 316 316 316 317 318 318 319 320 320 320 319 319 319 319 319 319 318 317 318 318 317 317 317 317 316 316 316 317 317 318 318 318 319 319 319 319 319 319 319 319 319 319 319 318 318 318 319 319 319 318 316 315 315 315 314 314 314 314 313 313 314 314 314 314 314 315 315 315 315 315 315 315 315 316 316 316
311 313 314 315 315 315 314 314 314 314 313 315 317 317 317 318 318 319 319 319 319 319 320 319 318 319 319 317 318 318 318 318 318 318 318 316 316 317 317 318 318 318 318 318 319 319 319 319 319 319 319 319 319 319 319 319 319 319 319 319 317 316 315 315 315 315 314 314 314 314 314 313 313 313 312 312 312 312 313 313 313 314 314 314 314 314
313 313 313 315 315 314 313 313 313 313 312 313 315 316 316 317 318 318 318 318 319 319 319 319 319 320 318 317 318 318 318 318 318 319 318 317 317 317 317 317 318 318 318 318 318 319 319 319 319 319 319 319 319 319 319 319 319 320 319 319 318 317 315 315 315 315 314 314 314 315 315 314 313 313 312 312 311 311 311 311 311 311 312 312 313 313
312 312 312 313 314 313 313 313 312 311 311 312 312 313 314 316 317 317 318 318 318 318 318 317 318 319 318 318 318 318 319 319 318 318 317 317 316 316 316 317 317 318 318 318 318 318 318 318 318 319 319 318 318 318 318 319 319 319 319 319 318 318 316 315 315 315 314 313 313 314 313 313 313 313 313 312 312 311 311 311 310 310 310 311 312 312
310 312 313 312 312 313 313 313 312 312 311 312 312 312 313 313 314 315 316 317 317 318 317 317 318 318 317 317 317 318 319 318 318 318 317 317 316 315 315 316 316 317 317 317 318 318 318 318 318 319 318 317 317 317 317 318 319 319 319 319 319 319 317 315 314 315 314 313 313 312 312 313 314 315 316 315 313 312 311 311 310 310 310 310 310 311
310 311 313 312 312 312 312 312 312 312 312 312 312 312 313 313 313 313 314 315 316 317 317 317 317 317 317 316 317 318 318 317 317 317 317 316 315 315 315 315 316 316 316 317 317 318 318 318 318 318 317 316 316 316 316 317 318 319 319 319 319 319 319 317 316 315 315 314 312 312 312 313 313 315 316 316 315 314 312 311 310 310 310 310 309 309
310 310 311 311 311 311 312 312 312 311 312 312 311 312 312 312 312 312 312 313 313 314 315 315 315 315 314 315 316 315 315 314 315 316 316 315 314 314 315 315 315 316 316 317 318 318 318 318 317 317 316 315 315 315 317 317 318 318 319 319 319 319 319 319 319 318 316 314 313 312 311 311 312 314 315 316 316 315 313 312 311 310 310 310 310 310
310 311 310 310 310 311 311 311 310 311 310 311 310 310 311 311 311 312 312 312 311 312 312 312 312 312 313 314 315 314 313 313 314 314 315 315 315 315 315 315 316 316 316 317 317 318 317 316 315 315 315 315 315 317 318 318 318 318 318 318 319 319 319 319 319 319 318 316 314 313 312 311 311 312 313 314 315 315 314 313 312 311 310 310 310 310
310 310 310 310 309 310 309 309 309 309 309 308 308 308 308 308 309 310 310 310 310 311 311 311 311 311 312 313 313 313 313 314 314 315 315 315 315 315 316 316 316 316 316 316 316 315 314 314 314 315 315 316 317 318 318 318 317 317 318 318 319 319 319 319 319 319 319 318 316 314 313 312 311 311 312 312 314 314 314 314 312 311 310 310 310 310
310 310 310 309 309 309 309 308 308 308 308 307 307 307 307 307 308 308 310 309 309 309 310 310 310 310 311 312 312 313 313 314 314 315 315 315 315 315 316 315 315 315 315 314 314 314 314 314 315 316 316 317 317 317 317 317 316 317 317 318 318 318 318 318 318 318 318 318 318 317 316 315 314 312 311 311 313 314 315 315 313 311 311 310 310 310
310 310 309 309 309 309 308 307 308 308 307 307 307 307 308 309 308 308 309 309 309 309 310 310 310 310 311 311 312 312 313 313 314 313 313 313 313 314 314 313 314 314 314 314 314 315 315 315 316 316 316 317 317 316 316 316 316 317 317 317 318 318 317 317 317 317 317 317 318 318 318 318 317 316 313 311 312 314 316 315 313 311 311 311 311 310
309 309 309 308 308 307 307 307 307 307 307 306 306 307 308 309 308 309 310 310 310 310 310 310 310 310 310 311 312 312 312 312 312 312 313 313 313 313 313 313 314 314 314 314 315 315 315 315 315 316 316 316 315 314 314 314 315 316 317 317 317 317 317 317 317 317 316 316 317 317 317 318 318 318 316 312 310 312 315 315 314 312 311 312 312 311
307 308 308 307 306 306 307 307 306 306 306 306 307 307 308 308 308 310 311 310 310 309 310 310 310 311 311 312 312 312 312 312 312 312 313 313 313 313 314 314 314 314 314 314 314 314 315 314 314 314 313 313 313 312 312 312 313 314 315 315 315 316 317 317 317 316 316 316 316 316 317 317 318 318 318 315 311 311 313 314 314 312 312 312 312 312
306 307 307 307 307 306 306 306 306 306 307 308 308 308 308 308 308 310 311 311 310 310 311 310 310 311 312 312 312 312 312 312 312 312 313 312 312 312 311 311 311 311 312 313 313 313 313 312 312 312 312 312 312 312 312 312 312 312 312 312 312 313 314 314 314 315 316 316 316 316 316 316 317 317 318 317 313 310 311 313 313 313 312 312 312 312
306 307 307 308 307 307 306 307 306 307 308 309 309 308 309 309 310 311 311 311 311 311 311 311 311 311 311 311 311 312 312 312 312 311 311 310 310 310 309 309 309 309 309 310 310 310 311 311 311 311 312 312 312 312 312 312 312 312 312 312 312 312 312 311 312 313 314 315 316 316 316 316 316 316 316 317 315 312 310 311 312 312 312 312 312 312
306 307 307 308 308 307 307 307 307 307 308 309 309 308 308 310 311 311 311 310 311 309 309 310 310 308 308 307 307 308 309 309 309 308 308 308 308 309 308 308 307 307 307 308 308 308 309 309 310 310 310 310 311 311 312 312 312 313 313 313 313 312 312 312 312 312 312 313 314 314 315 315 315 315 315 315 315 314 313 312 312 311 312 312 312 312
306 307 307 308 308 308 308 308 308 309 309 308 309 309 309 310 310 310 311 311 310 308 307 308 307 306 306 305 305 305 306 306 306 306 305 305 305 306 306 306 306 307 307 307 307 307 307 307 307 308 308 309 310 311 311 311 312 312 312 312 312 312 313 313 312 312 312 312 312 312 314 314 315 315 315 315 315 314 314 314 313 312 311 311 312 312
305 306 306 307 307 307 308 308 309 310 309 308 309 310 310 310 309 310 312 310 308 306 306 305 305 305 305 305 305 305 305 304 304 304 304 303 301 302 304 304 305 306 306 307 307 307 307 307 307 307 307 308 310 310 311 311 311 311 311 311 311 312 312 312 312 312 312 312 312 312 312 313 314 314 315 314 314 313 313 313 313 312 311 311 311 311
305 306 306 306 307 307 307 308 308 308 308 308 309 309 310 310 310 310 311 309 307 305 304 304 304 305 305 305 305 304 303 303 302 301 301 300 299 300 302 304 305 306 305 305 306 306 306 306 307 307 307 308 309 310 310 310 311 311 311 311 311 311 312 312 312 312 312 312 312 312 312 312 313 314 314 313 313 313 313 313 312 312 311 310 310 311
305 304 305 306 307 307 307 307 307 307 307 308 309 309 308 308 309 309 309 309 307 304 304 304 304 305 305 304 303 303 302 302 301 300 298 298 298 300 302 303 304 305 304 303 303 303 303 303 304 305 306 308 309 309 309 309 309 310 310 311 311 311 311 311 311 311 311 311 312 312 312 311 311 312 312 312 312 312 312 311 311 311 310 309 309 310
304 303 304 306 307 307 307 307 307 306 306 307 307 307 307 307 308 307 307 308 306 304 303 304 304 304 303 302 301 302 303 302 301 299 298 299 301 302 302 302 301 300 299 299 298 298 299 299 300 301 304 307 308 308 308 308 308 308 309 309 310 311 311 311 310 310 310 310 311 311 311 311 311 311 311 311 311 311 311 310 310 310 309 309 309 309
304 303 305 306 306 306 306 306 305 305 305 305 306 306 306 306 305 304 304 305 304 303 303 303 303 302 301 300 300 301 301 300 299 299 300 301 301 301 300 298 297 296 296 296 297 297 297 297 298 299 301 305 307 307 308 308 307 307 307 308 309 310 310 311 311 310 309 309 310 311 310 310 310 310 310 310 310 310 310 309 308 308 309 309 309 309
303 303 305 305 305 306 306 305 305 305 306 305 305 304 304 304 303 303 303 303 303 303 302 301 300 300 299 299 299 299 298 298 299 300 300 299 298 298 297 296 296 296 296 296 297 297 297 298 298 298 299 302 305 307 307 308 308 307 307 307 308 309 308 308 309 310 310 309 309 310 310 310 310 309 310 310 309 308 308 307 307 307 308 308 308 308
302 304 304 304 305 306 306 306 305 306 307 306 304 303 303 302 302 301 301 301 301 300 299 298 297 297 297 297 297 297 298 298 298 298 297 296 296 296 295 295 295 295 296 296 297 297 297 297 298 298 298 300 303 305 306 308 308 307 307 307 307 307 307 307 306 307 309 309 309 309 309 310 310 310 310 310 310 309 307 306 305 305 305 306 306 306
302 303 303 304 305 305 304 304 304 304 304 304 303 302 302 301 301 299 298 297 296 296 296 296 295 295 295 295 295 296 296 296 295 295 295 295 295 295 295 295 295 295 296 296 296 296 297 297 297 297 298 298 300 302 305 306 307 307 307 307 307 307 307 306 305 305 306 308 309 309 309 309 309 310 309 309 309 309 308 306 305 304 304 304 304 304
Wind_Speed
6 7 9 11 13 15 16 19 13 2 5 11 10 9 9 8 7 6 3 3 2 5 7 10 11 14 18 17 16 17 14 12 17 21 24 26 24 24 28 35 39 40 39 35 33 32 30 29 27 27 27 28 28 30 31 32 32 32 31 31 32 31 32 32 31 31 30 30 30 31 34 35 35 34 33 32 31 29 29 27 28 29 30 30 30 29
4 8 13 13 11 14 15 16 11 4 7 10 8 8 8 10 8 4 3 2 4 4 6 6 9 13 17 17 17 18 14 13 19 23 25 27 26 24 27 34 38 39 39 37 36 35 32 30 27 27 28 29 31 32 34 36 35 32 31 33 32 32 34 34 33 32 32 32 31 31 33 34 34 35 34 33 32 31 29 29 29 29 30 31 31 31
3 6 8 4 3 9 11 10 9 8 8 8 7 8 8 8 5 3 4 2 3 4 5 5 9 12 15 18 18 17 14 16 23 25 26 26 25 26 27 28 32 37 40 40 40 39 36 33 30 28 29 29 30 32 34 34 33 31 32 33 32 32 35 36 34 34 33 32 31 30 31 32 33 34 34 34 33 32 32 31 30 30 31 32 33 33
4 4 4 3 4 6 10 9 11 10 8 8 8 9 7 6 5 5 4 4 3 4 4 5 9 11 13 16 18 19 19 21 26 29 30 30 29 33 34 29 29 36 41 41 42 41 38 37 34 32 30 29 30 31 32 32 32 32 33 33 32 32 35 36 35 34 32 32 31 31 31 31 32 33 34 33 34 35 35 35 34 33 34 34 35 34
6 2 7 6 3 3 8 11 14 11 9 10 11 12 8 6 7 5 2 3 3 4 3 5 10 10 12 15 17 16 17 20 24 26 27 30 33 38 41 38 37 40 42 42 41 40 38 37 36 35 33 31 31 31 31 31 32 32 32 31 31 32 34 35 35 33 32 33 33 33 33 33 33 34 36 36 37 38 39 39 38 37 36 36 35 34
8 6 9 8 3 2 6 9 13 12 9 11 13 14 11 9 9 3 3 1 5 6 4 2 9 8 8 14 15 10 8 11 14 17 20 23 27 32 36 38 38 37 37 37 36 35 35 33 32 32 32 32 32 31 31 31 31 32 31 30 30 32 33 34 35 33 33 34 35 35 36 36 36 37 38 39 39 40 40 40 40 39 38 37 36 36
5 9 9 7 6 5 6 7 10 11 9 9 10 13 12 11 10 7 6 4 7 7 1 2 8 8 5 10 12 9 6 7 9 11 15 18 22 27 32 34 34 35 35 35 36 36 35 32 29 27 26 28 28 27 28 29 31 32 32 31 31 32 34 35 34 34 34 35 36 36 36 37 38 38 38 37 37 38 39 39 39 39 40 39 38 38
6 12 10 10 10 5 6 7 6 8 8 4 4 12 14 12 11 10 8 8 7 6 3 4 6 9 10 8 8 9 10 11 11 11 13 16 21 27 31 34 35 35 36 36 38 37 35 31 28 27 26 26 27 26 25 25 27 30 32 33 33 33 34 35 35 35 35 35 35 35 36 38 38 38 37 37 37 37 38 39 38 39 40 39 39 39
7 14 13 11 10 6 7 7 4 6 7 1 2 6 14 14 13 12 10 8 4 4 9 9 5 7 11 5 4 7 11 13 11 11 12 15 20 25 29 33 35 35 35 35 35 33 30 27 23 22 22 23 25 27 28 26 26 27 28 31 34 36 36 36 36 37 37 36 35 35 37 39 39 37 36 37 37 37 37 38 37 38 39 39 40 40
3 12 16 11 7 8 9 7 6 6 4 1 4 4 3 6 8 8 7 6 4 4 12 12 9 8 10 5 5 5 7 10 8 7 10 15 21 25 27 31 33 33 31 28 26 24 23 21 18 17 20 23 25 25 26 27 29 29 28 28 31 35 38 38 37 38 38 38 38 39 40 41 40 39 38 38 39 39 39 38 38 38 39 39 40 40
2 9 15 10 8 9 7 6 7 7 4 5 4 3 2 2 2 2 2 2 4 8 13 15 14 10 9 5 6 5 4 4 6 6 9 14 20 24 28 30 30 29 27 25 25 27 27 25 24 25 28 28 27 26 25 26 27 29 30 29 29 31 34 37 38 38 40 41 42 43 43 43 43 42 41 41 41 40 40 39 38 38 38 38 39 40
5 7 7 7 11 11 6 5 6 7 8 5 2 0 1 1 1 1 2 3 6 8 10 12 14 13 12 5 3 3 3 2 6 8 9 13 17 22 27 28 27 27 29 32 34 35 35 33 32 32 29 27 28 29 27 26 25 25 28 30 31 30 32 34 36 38 40 41 44 45 45 45 45 44 44 44 44 43 41 39 38 38 38 38 38 39
7 7 5 4 11 14 9 6 5 4 7 6 4 4 4 4 4 4 5 5 6 6 3 8 12 10 13 12 9 10 8 8 11 10 11 14 15 20 27 28 29 32 35 37 37 36 34 32 30 28 26 27 29 29 27 27 24 23 25 27 30 30 31 32 33 35 38 41 43 45 46 46 46 45 45 45 45 44 43 41 40 39 38 38 38 37
6 6 8 6 6 13 11 8 8 7 10 11 9 8 6 5 5 7 7 4 5 5 1 8 10 5 10 12 12 16 16 18 20 16 18 22 25 29 33 33 34 36 36 34 35 35 33 30 28 28 29 28 26 24 23 26 26 25 24 25 28 28 27 27 27 29 33 38 42 44 44 45 46 46 46 46 46 45 44 42 41 40 39 38 37 36
7 4 10 10 7 13 13 9 7 6 10 12 7 5 5 4 3 4 4 3 4 4 2 6 6 5 6 3 1 4 7 14 20 19 23 28 31 35 37 37 36 37 35 33 32 33 32 31 31 31 30 27 23 20 20 21 25 27 26 25 27 28 27 27 25 26 30 33 38 42 43 43 45 46 46 46 46 45 45 44 43 42 40 38 37 36
8 3 10 13 10 16 16 12 7 6 6 7 5 5 6 5 2 1 1 0 1 2 2 5 4 5 7 6 2 2 2 6 13 18 22 26 27 29 32 35 36 34 33 32 31 31 31 31 32 31 29 25 22 20 20 20 21 25 28 29 30 31 31 31 31 30 31 32 34 38 41 41 41 44 45 47 47 47 46 46 45 43 41 39 38 37
7 4 10 12 10 18 20 14 12 8 5 5 6 7 5 1 3 1 2 1 1 4 3 4 5 6 8 12 10 10 10 10 12 17 19 19 20 21 25 30 33 33 32 31 29 29 28 29 29 29 27 24 22 22 21 21 20 21 24 28 33 36 38 39 38 36 34 33 33 35 38 40 40 41 43 45 46 47 47 47 46 44 42 42 41 40
6 3 8 12 11 17 21 17 14 6 2 4 7 7 3 3 1 1 3 2 2 5 3 4 8 8 7 8 3 7 11 9 10 14 16 15 15 16 22 29 31 31 29 26 25 25 24 26 28 27 25 22 21 22 21 21 21 20 21 24 28 33 36 38 38 35 32 31 31 32 35 37 39 41 41 42 43 44 46 46 45 44 44 43 42 41
6 3 5 11 11 12 13 13 10 3 1 1 3 6 5 1 3 5 4 5 6 7 4 6 11 9 9 10 5 8 12 7 8 10 11 12 13 13 20 27 28 27 25 23 24 24 22 24 27 28 24 21 21 21 20 21 21 20 20 22 24 26 28 28 28 27 27 27 28 29 30 33 35 37 39 40 40 41 43 43 43 43 43 43 42 42
4 4 4 6 6 8 8 7 8 6 3 1 1 4 3 1 2 5 5 4 4 7 5 6 9 7 10 14 12 15 15 7 8 8 8 10 12 14 19 24 25 23 24 26 27 25 23 23 26 28 26 22 20 22 22 21 22 20 19 21 23 23 22 22 23 24 25 26 28 29 29 30 32 34 36 37 38 40 41 40 41 41 42 42 42 42
2 3 3 4 4 5 6 6 9 11 9 5 6 7 5 2 1 1 3 3 3 5 5 6 8 7 9 10 11 16 14 6 7 9 9 11 15 18 20 23 25 25 27 30 28 25 24 24 25 28 28 25 24 25 24 23 23 23 24 25 26 25 23 24 24 26 26 28 29 30 30 30 30 32 34 35 37 38 39 39 40 40 40 41 41 42
3 4 5 4 4 6 6 4 3 7 10 9 8 9 8 6 3 3 5 5 4 4 4 4 7 9 7 3 5 12 10 6 8 9 9 11 16 19 20 23 26 29 30 29 26 24 25 25 26 28 28 29 30 30 27 26 26 27 28 29 28 26 27 27 27 28 28 28 29 30 30 30 30 31 33 34 36 37 36 37 39 39 39 40 39 40
2 2 4 4 4 5 2 2 4 1 7 10 8 7 8 7 5 7 7 5 5 5 4 2 5 11 8 3 4 8 7 7 8 9 9 11 15 20 22 24 27 28 28 26 24 25 25 26 27 28 30 33 35 33 28 25 24 25 27 27 26 25 26 28 28 28 28 28 29 30 29 30 30 31 32 34 35 35 35 36 37 37 38 38 37 38
2 2 5 5 3 0 2 3 5 5 1 7 7 8 8 8 9 9 4 1 4 7 6 5 6 12 8 3 5 9 7 7 7 9 12 12 15 21 23 23 25 25 24 23 24 25 26 27 27 28 31 34 35 32 26 24 23 22 21 21 22 23 24 26 27 27 28 28 29 29 29 29 29 29 31 32 34 35 34 34 35 36 36 36 36 37
6 4 7 7 5 3 2 3 2 2 2 4 6 9 11 12 13 9 3 1 3 7 9 8 7 11 7 1 4 7 3 4 5 8 14 14 15 20 21 22 24 24 23 23 24 26 27 27 28 30 32 34 34 28 22 24 25 22 20 19 21 22 23 24 24 25 25 26 26 27 27 27 27 28 28 29 31 32 32 33 34 34 35 35 35 36
7 4 6 9 8 7 7 7 5 4 4 2 4 8 12 15 15 9 4 4 5 7 9 8 7 12 14 12 13 10 4 6 7 8 12 15 17 20 22 24 25 24 25 26 26 27 27 28 30 31 31 33 34 28 22 24 26 25 24 23 22 22 21 21 22 22 23 23 23 23 24 24 25 26 27 27 27 28 29 30 31 33 34 34 35 35
3 2 6 9 9 8 9 7 2 2 3 4 5 9 12 15 16 11 7 7 6 6 9 10 10 13 20 23 21 15 11 13 12 9 10 12 16 21 24 26 27 27 28 28 28 27 27 27 30 32 33 35 37 35 30 29 30 30 31 29 26 23 21 22 23 23 23 23 23 23 23 22 23 24 25 26 26 27 28 28 30 31 32 33 34 34
2 4 9 10 12 12 11 7 2 2 6 8 8 11 12 14 15 12 9 7 6 7 10 11 11 13 21 26 24 19 15 14 15 13 11 11 15 20 23 26 28 30 31 29 26 24 24 27 31 36 38 37 38 39 38 36 36 36 36 35 31 27 25 25 26 26 26 26 26 25 24 23 22 22 24 25 27 28 29 29 30 31 32 32 33 34
2 7 10 11 13 14 14 10 3 3 6 7 7 11 12 14 16 15 14 12 10 10 9 10 12 15 20 26 26 23 18 14 16 21 20 18 18 20 22 26 29 31 30 25 21 22 27 32 37 40 40 38 37 39 40 40 39 39 39 38 33 30 29 28 28 29 29 28 27 26 25 24 22 22 23 24 26 28 29 31 31 32 33 34 34 35
2 6 7 7 9 13 14 11 5 5 7 8 10 11 8 9 12 14 16 17 17 17 15 14 17 19 18 20 25 27 23 17 22 31 29 22 19 20 23 26 28 28 25 22 25 30 34 38 40 40 38 38 38 38 39 40 39 39 41 39 34 31 30 31 31 31 30 30 29 26 25 24 22 21 22 24 25 26 28 30 31 32 33 34 35 36
3 6 5 4 6 10 11 10 9 10 10 11 12 12 8 7 9 12 14 16 17 19 20 20 20 18 16 19 28 35 32 23 25 34 33 24 19 21 25 29 29 27 26 29 33 35 35 38 40 39 38 39 41 41 41 40 38 40 41 39 36 33 30 31 33 33 32 32 30 29 28 26 23 21 22 23 24 25 26 28 30 32 33 34 34 35
4 4 3 4 6 9 9 11 11 9 9 11 12 13 13 12 12 13 14 14 14 14 16 18 17 13 14 18 24 32 33 26 24 30 30 25 25 26 26 29 31 29 29 31 31 30 33 38 40 40 40 41 43 44 44 41 39 40 41 41 39 37 34 32 33 34 35 34 33 32 30 28 26 22 22 23 24 25 26 27 28 30 32 33 34 34
6 5 4 5 7 9 10 10 8 5 6 8 10 14 18 18 17 16 14 15 15 13 12 13 13 13 13 16 18 24 28 27 27 28 25 23 29 31 28 29 31 28 27 27 26 27 34 41 44 43 43 44 45 44 42 40 39 39 41 41 41 40 39 37 37 37 36 36 35 34 32 31 29 26 23 23 24 25 26 26 28 29 30 31 32 33
6 6 6 6 5 8 7 4 4 7 8 8 10 14 17 17 17 17 16 18 19 17 15 15 16 16 15 15 17 21 27 32 37 40 31 22 27 34 31 28 26 23 24 26 26 30 38 46 49 48 45 44 42 38 35 35 35 37 39 40 40 40 41 42 42 41 40 38 37 36 34 33 32 29 26 24 24 25 26 27 28 28 28 29 30 30
7 7 6 5 5 7 3 3 5 9 9 9 9 10 12 15 18 20 22 24 24 22 21 20 20 20 19 21 26 30 36 42 46 48 39 27 31 38 33 28 27 25 26 30 33 37 43 48 49 46 41 39 35 33 33 34 36 37 38 39 40 40 41 41 43 43 42 40 38 36 35 34 34 33 30 28 26 25 26 28 29 28 27 27 27 27
7 7 6 5 6 6 5 6 7 6 7 10 9 9 11 13 17 19 20 22 23 21 19 20 22 24 25 31 37 39 42 44 43 44 45 42 42 38 30 33 38 34 32 36 38 41 43 43 41 38 35 33 33 33 34 34 35 36 36 38 39 40 40 39 41 41 40 38 37 36 35 34 35 35 34 32 29 26 26 28 30 29 26 25 24 24
6 7 5 5 6 5 6 8 6 6 10 11 10 12 12 11 12 13 12 15 17 18 18 19 22 25 27 33 38 39 40 34 25 33 49 50 42 35 32 38 41 36 33 35 34 33 32 31 30 29 29 30 32 32 31 31 33 34 36 37 37 37 37 37 37 37 35 33 33 32 32 33 35 36 37 37 34 28 27 30 31 30 27 25 24 22
5 5 5 5 6 5 6 9 7 6 9 12 14 14 9 9 11 10 9 11 13 17 22 21 21 24 23 26 32 33 31 19 10 24 38 28 19 23 26 25 24 23 23 24 22 22 23 23 25 26 27 29 31 30 29 30 31 33 35 37 38 38 39 39 38 36 34 32 30 28 28 30 32 35 37 39 38 33 30 32 33 32 30 27 25 23
3 2 4 6 7 7 8 8 7 7 9 12 17 12 5 12 15 9 7 10 14 23 29 22 19 20 20 23 26 23 17 10 9 19 18 6 7 15 14 11 15 17 18 19 20 21 21 21 22 22 22 23 24 23 24 24 26 29 32 34 36 37 39 41 40 38 36 34 30 28 29 30 31 32 34 37 39 38 35 35 35 35 34 31 28 26
5 4 6 9 10 11 10 8 7 7 9 14 18 9 3 10 13 8 7 11 12 16 20 18 17 21 24 27 25 16 11 10 12 14 11 10 13 15 9 8 12 14 15 17 16 15 16 16 16 16 17 17 18 18 19 20 21 23 25 28 31 33 35 36 36 36 37 36 33 32 32 32 32 32 32 33 36 39 40 40 39 38 37 36 33 31
5 6 7 9 11 12 11 10 8 6 8 15 18 7 9 10 6 8 10 10 3 2 2 11 17 19 20 19 14 10 11 14 16 17 16 14 15 13 8 8 10 10 9 9 8 9 11 12 13 15 15 16 17 18 19 20 21 22 24 26 27 28 29 30 31 33 34 34 35 35 35 34 33 33 32 32 33 38 42 43 43 42 41 40 38 36
6 5 6 8 10 10 10 10 8 7 13 18 14 6 12 8 6 10 10 7 3 4 6 7 8 6 6 4 4 6 10 13 13 14 13 10 10 10 9 9 11 12 11 10 9 10 11 12 13 14 14 15 16 18 19 21 23 24 25 26 27 28 28 28 29 31 32 33 35 36 35 35 35 34 33 32 34 37 40 43 46 46 44 44 43 40
7 6 6 8 7 7 7 9 7 8 14 17 10 5 7 9 11 8 4 6 7 4 6 4 2 2 1 2 5 6 9 12 13 14 14 14 15 14 12 12 15 15 15 14 13 12 15 16 16 15 15 15 16 18 19 22 23 24 25 26 27 27 29 29 30 31 32 34 36 36 35 36 35 35 34 34 35 37 39 42 46 48 47 47 46 43
8 8 7 7 7 7 7 8 9 8 8 12 13 8 10 17 16 7 2 6 6 3 5 5 6 6 5 6 8 9 10 14 16 18 19 21 21 19 17 16 17 16 17 17 16 16 18 20 19 17 16 15 15 17 19 21 24 25 25 26 26 27 28 30 31 32 33 34 35 36 36 35 34 35 35 34 35 37 39 41 45 47 48 48 48 47
10 10 6 5 8 9 8 9 9 6 4 11 16 10 8 14 14 8 2 5 3 4 5 5 6 6 5 7 10 11 12 14 16 18 21 24 24 22 20 19 18 17 17 18 19 19 21 22 22 21 19 15 13 15 17 20 24 26 26 26 27 28 29 30 31 33 34 35 34 35 36 36 35 35 35 34 35 36 39 41 44 46 46 47 49 49
6 7 3 2 6 8 11 15 13 7 5 10 15 12 8 9 10 6 3 2 5 8 7 4 3 4 5 8 11 12 13 12 13 16 20 22 22 20 18 19 18 17 18 20 21 22 24 24 24 24 22 18 14 14 17 19 22 25 26 26 27 28 29 30 32 33 34 35 34 33 34 36 37 35 34 34 35 36 38 41 44 45 45 45 48 50
2 6 5 3 4 5 7 12 10 8 8 10 12 13 14 13 11 7 6 7 7 7 6 4 3 4 8 12 13 14 14 13 15 18 18 17 17 16 16 19 20 21 23 24 24 25 27 27 26 26 25 22 19 18 18 19 21 24 26 27 27 27 29 31 33 34 34 34 34 33 32 34 37 37 35 34 34 36 38 40 43 45 45 46 47 50
4 9 8 6 7 7 4 2 1 5 9 11 13 16 17 15 9 5 4 4 2 2 4 6 7 10 13 14 14 15 16 16 16 17 15 15 17 19 21 24 26 27 27 26 25 25 26 27 27 27 26 24 23 22 21 21 22 24 26 27 27 28 29 31 33 35 36 35 33 32 31 31 33 36 36 35 34 34 36 38 41 43 45 45 46 48
6 8 6 3 6 8 7 4 4 10 12 10 10 10 10 7 2 3 1 1 2 6 11 14 17 17 16 15 14 14 15 16 15 14 15 19 22 25 26 27 27 26 26 25 25 25 25 26 27 27 27 26 25 24 24 23 23 25 26 27 27 27 29 31 33 34 37 37 36 33 31 30 31 32 34 35 35 34 34 35 38 41 43 44 44 46
5 5 3 2 4 6 5 3 5 5 6 4 4 3 3 3 3 3 4 7 11 15 18 19 19 18 15 15 15 15 15 17 19 20 23 26 28 29 30 30 28 27 26 25 26 26 26 27 27 28 28 28 27 27 27 25 24 25 27 28 27 27 28 30 32 34 35 38 39 36 32 31 31 31 32 33 33 34 34 34 36 39 41 43 43 44
7 5 5 5 6 4 3 6 6 3 4 5 6 8 8 9 13 17 18 18 17 16 15 15 17 18 19 21 21 20 21 24 27 28 29 30 30 31 31 30 29 28 27 26 27 28 29 30 30 31 31 30 30 30 30 28 26 26 28 29 29 28 28 28 29 31 33 36 39 39 36 33 31 31 31 31 31 31 32 32 34 37 39 42 43 43
Wind_Direction
194 180 185 201 198 196 200 205 207 187 192 187 180 201 207 209 215 204 175 88 159 234 234 235 246 253 260 265 262 258 246 241 257 262 263 262 261 261 262 267 269 271 273 274 273 272 272 271 269 264 260 258 256 253 251 257 268 270 263 259 253 245 242 241 243 244 243 243 242 240 240 241 241 241 241 241 241 242 243 241 240 237 236 238 238 235
242 205 197 206 209 203 201 202 199 179 185 187 189 204 212 223 226 196 189 114 124 241 255 238 256 258 261 268 264 258 248 244 253 256 259 261 262 261 260 265 269 273 276 277 277 275 274 273 270 266 262 259 257 254 254 258 264 264 260 259 256 249 242 239 240 243 245 246 246 245 243 243 243 244 244 245 245 245 245 244 243 240 237 238 238 236
260 224 200 185 194 191 187 186 193 199 195 197 203 211 222 222 223 201 195 135 133 236 263 261 270 265 264 270 266 256 243 246 253 253 258 262 264 264 261 264 269 274 278 278 279 278 277 276 272 269 265 262 260 259 258 259 258 257 255 256 255 251 245 239 238 241 245 247 248 250 249 247 246 245 246 247 248 248 247 245 244 242 240 238 238 237
232 245 184 92 48 157 166 176 192 202 204 208 207 218 228 186 191 229 196 148 171 237 284 290 281 273 267 270 269 257 238 241 252 254 259 262 262 265 265 265 268 271 275 277 279 280 280 279 275 272 269 267 266 263 261 259 256 254 254 254 253 252 247 243 240 240 244 247 249 251 251 251 250 248 247 246 246 245 244 243 242 240 239 238 237 237
193 201 150 131 42 140 167 181 193 203 210 216 216 223 229 181 199 237 121 142 203 220 251 281 280 272 252 249 261 258 229 227 244 250 257 259 260 266 269 269 270 271 273 275 277 280 280 281 279 274 272 271 270 265 260 258 257 256 256 255 252 251 249 246 245 243 243 244 245 246 247 249 248 247 245 242 242 241 242 242 241 240 240 239 239 238
191 166 146 137 94 176 181 182 198 206 209 219 220 224 228 208 206 192 116 205 259 239 198 230 277 275 229 228 244 251 217 213 234 243 252 258 261 265 269 272 274 275 276 276 278 279 280 283 285 278 272 272 270 265 260 257 257 256 257 257 252 249 249 248 248 245 242 242 243 243 244 245 245 245 244 243 243 242 243 244 243 243 243 242 241 240
180 158 150 145 141 183 206 198 201 202 211 229 210 204 219 218 200 171 163 212 256 261 180 156 261 277 245 231 237 236 230 224 225 240 250 255 260 263 269 273 275 277 278 280 282 282 282 285 287 282 275 274 273 269 265 260 256 255 255 255 252 249 248 248 249 247 244 243 242 242 243 246 246 247 248 250 249 248 248 248 246 245 245 244 243 242
152 160 167 167 157 159 208 214 205 195 212 246 177 184 202 209 196 185 195 219 244 274 263 197 238 278 271 252 239 237 250 248 231 236 246 251 259 263 267 271 273 277 279 282 283 284 287 289 286 282 280 279 278 275 270 263 258 255 253 252 251 250 249 247 248 248 246 244 243 243 244 246 248 248 250 252 252 252 251 251 250 248 247 246 245 244
149 169 172 169 168 170 199 207 185 190 212 275 16 207 203 202 199 195 208 224 238 277 256 229 198 259 268 243 181 217 247 254 235 229 243 249 257 262 264 267 271 276 280 283 287 290 292 291 285 283 284 285 283 276 268 262 259 258 256 251 248 247 248 247 247 247 247 246 245 245 246 247 249 250 250 250 251 251 251 251 251 249 248 247 246 246
162 183 181 173 183 201 204 196 169 186 213 103 28 332 226 191 192 194 207 215 196 230 249 235 196 231 272 246 183 192 233 254 239 217 238 247 252 257 260 264 270 276 280 285 292 298 298 292 287 289 292 293 292 286 274 264 257 256 255 252 249 247 246 247 247 247 248 248 248 248 248 249 250 250 249 249 249 250 249 250 249 248 248 248 247 247
140 180 186 187 203 206 195 180 178 182 163 97 57 359 17 78 132 161 155 174 198 228 245 233 203 217 268 252 195 200 207 254 262 234 234 241 247 255 260 266 272 276 280 285 291 296 294 290 288 290 294 296 296 292 283 273 264 258 255 253 252 250 247 247 247 247 248 249 249 250 250 251 251 251 249 248 248 249 249 249 248 249 248 248 248 247
133 152 180 199 198 184 150 161 182 165 154 130 78 224 200 133 119 117 125 165 208 231 244 224 195 206 243 242 175 214 183 193 256 250 245 247 249 257 263 268 273 277 284 288 291 292 292 291 291 292 294 298 300 294 282 277 276 268 260 255 253 252 249 248 249 249 249 248 249 249 249 250 251 251 251 250 250 249 250 250 250 250 249 249 248 248
161 168 169 164 184 178 156 155 156 142 166 175 177 195 217 203 178 184 189 185 211 243 252 178 169 194 243 254 246 243 232 225 239 239 245 255 255 258 263 267 273 279 285 289 291 294 297 298 299 296 294 297 303 298 279 268 271 272 266 256 253 252 252 253 254 254 253 252 250 249 248 248 249 250 251 252 253 252 253 253 252 252 251 251 250 250
163 179 166 145 183 187 176 165 165 176 187 188 188 194 206 207 199 203 198 177 209 242 215 154 160 199 261 269 251 238 237 239 242 240 244 252 254 258 265 269 275 279 282 287 291 296 301 304 305 303 301 302 305 302 285 267 260 266 267 257 250 248 249 253 257 260 260 257 254 252 249 248 247 248 249 251 253 254 255 255 254 253 253 253 253 252
173 181 173 175 181 181 191 202 183 155 176 192 193 188 207 224 227 218 201 203 208 203 167 167 170 200 234 262 156 204 234 242 245 246 247 251 253 258 265 270 274 278 282 287 291 296 302 307 309 309 309 310 307 303 300 286 267 260 260 255 249 245 244 250 257 264 268 266 260 255 252 251 249 248 249 250 251 253 254 255 255 254 253 254 255 255
199 209 175 177 167 170 191 211 188 131 155 189 172 182 222 222 212 291 6 263 259 246 203 195 213 228 240 268 261 186 201 227 239 247 246 247 251 255 262 268 273 279 285 291 296 300 305 307 309 312 314 315 309 299 297 297 284 267 258 253 250 247 247 251 258 266 273 271 264 258 254 253 252 250 249 250 250 251 252 252 253 254 254 255 256 257
206 196 163 165 164 181 189 190 187 177 158 165 175 196 220 163 147 248 281 76 10 284 237 177 224 254 270 278 259 230 229 218 225 243 246 247 251 255 261 268 274 281 288 295 300 305 310 311 312 316 317 314 308 299 289 286 285 274 263 258 254 253 252 254 259 266 271 270 265 260 255 254 254 253 252 252 252 253 253 253 253 254 254 254 254 256
198 155 155 170 178 191 192 186 190 196 118 148 189 187 133 60 103 184 266 252 221 258 245 182 224 243 255 267 229 212 233 214 213 243 252 254 254 254 261 269 277 287 293 301 307 312 317 318 317 321 323 315 308 301 286 276 275 270 268 269 265 262 259 257 257 260 264 265 265 263 259 256 256 257 256 256 256 256 256 256 255 255 255 254 254 255
188 168 178 190 186 177 183 190 193 206 347 215 191 161 138 168 196 160 206 241 226 241 251 220 229 234 241 249 243 242 243 202 188 236 252 255 253 253 262 269 279 290 299 307 313 316 320 320 319 322 325 321 315 309 289 271 269 270 273 278 277 274 266 255 250 253 258 265 268 268 265 262 259 258 258 258 258 258 258 258 257 256 255 254 254 255
183 202 197 189 178 159 165 197 199 191 213 297 165 170 163 242 208 173 191 219 224 235 248 240 231 221 232 242 244 252 253 213 185 220 241 250 255 258 265 273 282 293 303 308 310 313 315 316 317 319 323 321 316 314 300 277 267 270 279 284 283 278 265 248 247 256 263 267 269 270 269 266 262 259 257 256 257 258 258 258 257 256 255 254 255 256
150 221 206 145 142 170 181 202 203 195 191 183 187 194 192 182 168 193 197 200 227 228 231 244 243 239 238 235 233 246 256 231 199 225 238 245 255 261 270 283 291 296 302 304 307 309 311 314 315 317 320 319 314 313 307 290 276 273 278 286 287 277 262 253 256 263 266 267 267 267 267 266 265 261 257 255 255 255 256 257 257 255 255 254 254 255
155 199 196 154 158 197 201 191 198 200 194 193 199 199 194 184 173 205 204 197 215 219 222 242 256 260 247 202 225 245 255 245 223 231 235 237 250 262 275 286 291 294 298 302 305 308 310 312 314 316 317 317 317 317 311 298 287 280 279 285 287 276 263 261 264 266 267 267 265 265 265 265 265 264 260 257 256 256 255 255 255 254 254 253 252 254
109 165 177 173 186 197 194 58 42 61 203 213 221 209 203 197 193 213 212 195 199 218 249 265 269 273 262 178 214 242 246 244 229 227 236 239 251 265 276 282 285 290 296 300 304 307 309 308 311 316 315 315 320 322 318 311 301 291 286 285 282 272 262 262 265 266 266 265 264 264 265 265 265 265 263 260 259 258 256 254 254 254 254 253 252 253
111 159 179 189 198 163 8 359 15 22 223 219 222 217 215 206 205 222 230 192 204 212 229 233 245 268 267 196 242 260 255 247 231 232 246 247 254 266 274 280 285 291 295 300 305 306 307 307 311 315 312 315 323 325 325 327 320 307 296 285 276 269 264 265 267 267 267 267 266 267 266 266 266 266 265 263 262 261 259 256 254 253 253 253 252 253
178 182 191 199 202 208 235 252 284 313 243 222 217 214 216 213 216 232 260 315 243 208 215 228 238 258 265 193 262 272 250 233 215 228 250 257 263 271 278 284 288 291 294 299 304 305 307 309 310 311 309 315 324 326 327 330 326 317 304 287 277 273 268 267 267 267 267 268 268 268 268 267 266 266 267 267 266 264 262 259 256 254 253 253 253 254
181 188 198 205 200 195 206 214 213 205 191 195 226 218 217 216 215 223 235 233 232 214 218 228 233 256 269 269 265 262 251 254 235 220 243 258 269 278 283 285 288 289 293 299 303 304 306 307 308 310 311 317 323 323 322 326 329 328 317 298 283 277 271 267 267 266 266 267 267 267 268 268 267 267 269 269 268 267 264 261 259 258 256 255 255 255
165 233 213 219 222 211 211 211 155 92 158 178 207 214 217 219 216 218 227 222 220 220 226 229 231 255 269 269 267 266 265 270 268 253 244 249 263 274 280 285 287 288 291 295 297 298 302 307 311 314 314 315 317 314 313 319 325 327 324 311 293 280 273 270 268 267 266 266 267 268 269 269 270 270 270 270 269 267 265 262 260 259 258 257 256 255
137 222 210 221 232 232 232 227 112 95 222 214 208 212 215 220 220 222 233 236 235 236 237 234 227 243 262 268 271 273 273 276 280 280 272 262 265 272 278 284 286 287 287 287 290 298 305 309 310 309 308 308 309 307 308 313 318 319 318 315 303 284 275 274 272 269 269 267 265 267 268 269 270 271 271 270 269 267 265 263 261 259 258 256 255 254
175 215 210 213 228 238 242 237 159 142 237 236 220 221 219 215 216 221 231 236 237 240 246 248 238 238 251 263 270 274 275 282 287 287 286 281 278 278 278 279 280 281 280 280 293 305 305 304 304 303 304 305 305 305 306 308 311 310 309 311 308 290 276 275 275 272 270 268 265 265 266 267 268 270 272 271 270 268 266 264 262 260 258 256 255 253
207 218 217 210 227 242 243 239 212 199 234 244 236 238 234 219 219 224 230 233 234 236 240 245 249 247 249 262 273 276 278 283 286 285 280 275 279 283 280 278 277 276 277 286 300 302 298 298 300 301 302 303 303 305 305 304 303 303 303 306 310 301 283 275 277 278 274 270 265 263 263 264 266 271 275 276 275 273 271 268 266 263 260 259 257 255
221 215 201 177 230 248 245 244 233 217 226 240 240 242 244 243 241 236 236 237 236 237 237 236 242 250 253 262 272 277 280 278 275 275 273 272 278 276 272 273 272 272 278 288 293 294 293 295 297 299 300 302 304 304 303 302 300 299 300 302 308 308 297 282 278 280 279 274 269 265 263 261 263 271 278 281 280 279 278 275 271 268 265 262 260 258
208 214 158 164 228 244 238 240 240 231 235 245 247 245 238 236 236 232 231 232 232 239 243 239 240 245 249 255 265 275 278 273 266 267 272 280 281 272 265 267 269 270 276 280 283 287 291 295 298 298 298 300 303 303 302 302 299 295 297 301 304 306 304 296 287 283 280 277 273 268 265 263 262 267 277 281 282 283 282 279 276 274 271 267 264 260
186 200 190 190 224 246 241 237 240 244 249 247 239 233 230 231 233 235 238 238 238 244 248 245 245 243 244 248 256 268 275 275 274 272 272 280 284 279 272 268 270 273 274 275 280 287 292 295 295 295 295 297 300 301 300 300 298 294 296 301 302 302 303 302 299 294 288 282 276 271 268 266 263 264 270 277 280 281 281 281 280 278 276 271 267 262
176 196 211 198 220 250 242 197 212 241 248 245 235 229 231 236 240 243 246 242 239 238 239 245 252 253 252 249 250 260 268 271 274 274 272 275 281 280 276 272 274 277 275 275 281 286 289 291 290 290 293 295 298 299 299 297 296 295 296 298 298 298 299 299 300 299 296 291 284 277 274 271 268 265 266 269 274 277 280 282 281 280 278 274 270 265
173 191 201 192 222 254 249 152 217 241 238 243 255 251 244 246 246 244 245 243 241 239 240 245 253 256 257 255 254 256 259 262 267 271 275 275 273 273 275 279 280 276 273 277 281 284 285 285 285 288 291 293 294 295 295 296 298 298 294 292 290 289 290 293 293 294 296 295 292 287 283 279 275 271 267 266 269 274 278 281 280 277 276 274 272 270
164 182 197 199 214 245 255 226 232 263 269 264 273 263 242 239 240 241 246 248 244 241 241 243 247 250 250 250 252 252 256 262 268 273 275 273 269 270 275 280 280 279 280 282 281 281 281 281 284 289 291 291 292 293 295 299 301 299 293 288 286 284 285 286 286 287 291 293 293 293 292 289 285 280 274 269 267 271 279 281 278 273 271 271 272 272
149 168 193 209 208 224 253 247 251 298 295 276 254 234 222 219 227 232 244 253 248 240 236 236 241 245 245 248 251 253 258 265 272 274 273 272 271 273 276 277 279 281 281 282 280 280 282 284 288 291 292 292 293 297 301 301 299 297 293 289 288 287 288 288 286 287 290 291 291 292 293 291 290 288 283 275 268 268 279 282 276 269 265 264 265 269
157 165 169 201 217 223 248 262 265 264 266 258 247 240 217 203 223 232 240 257 260 247 237 230 233 240 243 247 250 252 258 264 270 270 272 278 284 279 273 272 277 281 280 282 285 287 289 292 292 293 293 292 293 299 304 302 298 294 290 289 289 290 289 289 288 292 296 296 296 294 289 284 283 285 285 280 272 267 274 281 276 267 261 260 260 263
194 173 160 202 229 230 235 250 248 237 247 257 263 268 217 200 217 226 238 251 256 251 243 234 234 240 240 244 247 248 254 256 251 261 273 328 329 287 281 281 281 284 287 288 289 290 291 292 291 291 293 295 300 308 310 306 301 295 289 289 290 289 287 287 289 293 295 296 298 295 287 281 277 275 277 279 275 269 269 276 276 267 260 259 258 258
200 194 194 211 228 232 231 237 243 245 254 260 266 278 144 181 200 200 229 245 250 256 250 237 234 239 238 242 246 244 241 242 251 274 310 339 305 295 316 316 293 292 289 282 280 283 284 286 288 291 297 305 314 319 319 315 309 304 301 300 297 294 292 293 294 293 290 289 289 286 283 282 280 275 271 271 273 270 267 269 272 267 260 257 257 256
190 194 202 211 224 229 228 235 246 248 246 256 263 250 128 129 169 203 228 240 234 24 267 220 224 236 242 248 255 256 262 270 280 296 314 316 301 305 330 329 320 327 320 302 299 298 291 290 295 298 304 314 319 319 319 316 312 311 313 314 314 314 313 309 301 293 288 284 280 277 275 277 279 279 275 270 268 268 266 266 268 266 260 257 257 257
186 190 199 208 221 227 226 234 245 254 247 248 252 192 144 154 231 233 235 250 226 100 100 165 198 225 245 269 321 306 301 310 312 313 325 335 329 328 335 337 338 340 338 335 333 325 315 310 311 313 316 323 326 324 320 315 311 311 313 314 318 323 325 322 311 299 290 283 278 274 272 271 272 274 275 273 268 265 264 264 266 266 261 257 257 257
171 174 196 205 208 211 222 227 229 248 245 231 212 149 161 212 247 251 244 248 225 155 102 103 92 18 5 12 6 349 344 348 347 344 347 349 347 343 341 341 342 342 342 339 336 333 326 320 321 324 326 329 332 329 323 318 316 317 319 320 321 321 321 323 321 313 302 291 283 278 274 270 269 268 269 269 268 266 264 263 264 266 262 257 256 256
169 179 200 203 193 193 209 215 216 240 240 198 184 188 206 220 238 267 244 205 193 120 62 36 18 7 356 354 356 359 1 358 353 350 345 341 341 340 337 338 341 339 334 330 330 329 323 320 321 322 325 334 338 331 325 321 319 320 324 328 329 325 322 321 322 320 315 306 295 284 277 271 268 266 265 266 267 267 265 263 263 265 263 258 255 255
189 190 192 195 196 200 213 221 221 237 231 191 195 208 220 226 244 269 218 168 120 27 1 4 18 17 9 0 353 349 350 349 345 339 333 330 331 331 331 334 335 331 326 323 324 324 321 320 320 318 321 332 337 330 326 325 321 320 323 327 329 330 328 325 322 320 319 316 308 295 284 275 269 265 264 266 267 267 267 266 266 266 264 259 256 254
206 185 169 194 200 211 241 245 236 227 219 210 216 233 264 271 267 263 227 241 328 330 318 321 14 35 11 348 334 327 330 334 329 323 321 321 322 323 323 320 318 317 317 315 316 318 318 318 319 319 320 324 329 327 325 326 325 322 323 326 328 330 331 330 327 324 320 317 314 305 291 280 273 269 267 267 268 269 268 269 269 269 266 261 256 254
218 182 186 217 195 191 238 243 234 230 233 233 243 260 276 284 280 266 265 282 300 315 322 324 351 2 337 322 316 313 314 316 316 316 315 315 317 319 319 316 314 314 313 313 313 313 313 314 316 318 318 320 324 324 322 326 328 325 326 328 329 330 331 332 333 331 326 319 314 310 299 286 278 275 272 269 268 269 271 271 271 270 267 262 258 255
182 182 199 225 216 213 238 246 336 312 278 262 274 284 283 281 278 270 277 285 289 329 323 308 308 314 313 311 311 309 307 309 312 314 317 317 316 314 312 312 313 313 314 316 315 314 315 316 315 315 315 318 322 321 319 323 327 327 327 329 329 330 331 333 334 334 332 326 318 311 304 294 284 280 279 277 273 270 271 273 273 272 270 267 263 259
139 169 190 210 216 237 266 280 302 312 303 279 271 279 278 277 300 78 72 311 318 314 307 304 304 306 308 310 310 307 308 311 313 314 314 312 309 308 309 311 313 315 316 318 319 320 321 320 317 315 313 315 318 318 317 318 323 326 326 326 327 329 331 333 334 334 333 332 327 317 308 300 292 284 282 282 281 278 275 274 275 275 274 271 267 263
157 184 171 156 214 241 258 217 214 269 287 257 239 264 293 317 11 24 330 310 305 304 305 306 308 310 315 317 317 315 311 309 310 310 309 308 309 311 315 318 319 318 318 321 322 322 321 321 320 318 315 314 316 316 315 315 317 321 322 322 323 325 327 330 331 331 331 331 330 326 317 306 297 290 285 282 283 283 281 279 277 275 274 271 268 263
198 190 158 196 237 243 187 168 172 212 260 263 268 279 293 308 315 315 314 313 310 311 316 318 316 318 318 315 313 312 307 306 309 310 309 309 312 315 318 319 319 317 318 320 321 320 319 319 319 318 317 316 315 314 314 314 314 316 317 319 320 321 322 324 325 327 328 328 327 329 326 316 304 294 288 285 284 283 283 282 280 277 273 269 266 263